Regional Weather Roundup
Issued by NWS Charleston, SC

Current Version | Previous Version | Graphics & Text | Print | Product List | Glossary On
Versions: 1 2 3 4 5 6 7 8 9 10 11 12 13 14 15 16 17 18 19 20 21 22 23 24 25 26 27 28 29 30 31 32 33 34 35 36 37 38 39 40 41 42 43 44 45 46 47 48 49 50
000
ASUS42 KCHS 171225
RWRCHS

REGIONAL WEATHER ROUNDUP
NATIONAL WEATHER SERVICE CHARLESTON SC
800 AM EDT THU APR 17 2014

NOTE: "FAIR" INDICATES FEW OR NO CLOUDS BELOW 12,000 FEET WITH NO
SIGNIFICANT WEATHER AND/OR OBSTRUCTIONS TO VISIBILITY.

NOT ALL STATIONS ARE QUALITY CONTROLLED BY THE NATIONAL
WEATHER SERVICE. USE DATA WITH CAUTION...ESPECIALLY
DEWPOINT OBSERVATIONS.

SCZ027-030-031-034>040-042>050-171300-
...SOUTH CAROLINA...

CITY           SKY/WX    TMP DP  RH WIND       PRES   REMARKS
N CHARLESTON   PTSUNNY   45  33  63 NE13      30.42R
6HR MIN TEMP:  43; 6HR MAX TEMP:  47;

WATERFRONT PRK   N/A     46 N/A N/A N20         N/A
FORT JOHNSON     N/A     45  37  76 N12       30.45R
MOUNT PLEASANT FAIR     N/A N/A N/A N6        30.42R
JOHNS ISLAND   SUNNY     46  39  76 N10       30.41R
PINOPOLIS        N/A     45  36  70 NE14      30.33S
MONCKS CORNER  FAIR      43  36  75 NE6       30.44R
SUMMERVILLE    FAIR      45  36  70 N9        30.43R
BEAUFORT MCAS  PTSUNNY   47  32  56 E13       30.40R
6HR MIN TEMP:  46; 6HR MAX TEMP:  51;

BEAUFORT ARPT  FAIR      46  37  71 N15       30.39R
HILTON HEAD IS PTSUNNY   50  41  71 N14G23    30.38R
GEORGETOWN     NOT AVBL
WALTERBORO     MOSUNNY   45  32  61 NE9       30.44R
ORANGEBURG     MOSUNNY   42  30  62 NE12      30.45R
6HR MIN TEMP:  41; 6HR MAX TEMP:  43;

BARNWELL       PTSUNNY   45  32  61 NE10      30.44R
AIKEN          FAIR      41  34  75 NE13      30.47R
MANNING        FAIR      41  32  70 N7        30.46R
KINGSTREE      NOT AVBL
COLUMBIA       PTSUNNY   43  29  57 NE12      30.47R
6HR MIN TEMP:  41; 6HR MAX TEMP:  47;

SUMTER         MOSUNNY   39  32  75 NE12      30.45S WCI  32
6HR MIN TEMP:  35; 6HR MAX TEMP:  39;

FLORENCE       SUNNY     40  30  67 NE12      30.47R WCI  33
6HR MIN TEMP:  37; 6HR MAX TEMP:  41;

MYRTLE BEACH   SUNNY     41  34  75 N10       30.44R
N MYRTLE BEACH SUNNY     42  33  70 NE14      30.44R
6HR MIN TEMP:  39; 6HR MAX TEMP:  42;


$$

GAZ063-065-086>088-099>101-113>116-118-119-134-136>141-150-171300-
...GEORGIA...

CITY           SKY/WX    TMP DP  RH WIND       PRES   REMARKS
SAVANNAH ARPT  CLOUDY    48  37  65 NE13      30.38R
6HR MIN TEMP:  47; 6HR MAX TEMP:  50;

HUNTER AAF     PTSUNNY   49  41  72 NE7       30.35R
6HR MIN TEMP:  49; 6HR MAX TEMP:  53;

FORT STEWART   CLOUDY    48  43  83 N10       30.35R
6HR MIN TEMP:  47; 6HR MAX TEMP:  49;

STATESBORO     NOT AVBL
SYLVANIA       CLOUDY    48  37  65 E10       30.42R
CLAXTON        PTSUNNY   50  41  71 NE12      30.39R
THOMSON        MOSUNNY   42  38  86 E7        30.49R
AUGUSTA-BUSH   MOSUNNY   43  35  73 NE5       30.44R
6HR MIN TEMP:  36; 6HR MAX TEMP:  43;

AUGUSTA-DANIEL MOSUNNY   44  32  62 NE9       30.43R
SWAINSBORO     CLOUDY    45  39  81 E8        30.41R
VIDALIA        CLOUDY    50  41  71 E14       30.38R
ALMA           CLOUDY    51  42  71 NE8       30.33R
6HR MIN TEMP:  47; 6HR MAX TEMP:  51;

WAYCROSS       NOT AVBL
JESUP          CLOUDY    50  46  87 E10       30.35R
BRUNSWICK      CLOUDY    55  52  88 N15G21    30.32R
SAINT SIMONS   LGT RAIN  60  54  80 NE16G25   30.30R
6HR MIN TEMP:  58; 6HR MAX TEMP:  60; 6HR PCP: TRACE;


$$

SCZ027-028-034-036>038-045-046-048>050-GAZ119-141-171300-
...LAKE AND SUPPLEMENTAL COASTAL OBSERVATIONS...

STATION/POSITION TIME  TEMP    WIND        PRES    WAVE   SWELL
                       AIR SEA DIR/SP/G            HT/PER HT/PER/DIR
                 (UTC) (F)     (DEG/KT/KT) (MB)    (FT/S) (FT/S/D)
UPR LAKE MARION  NOT AVBL
WINYAH BAY       1200   43      20/  7     1030.0S
LAKE MURRAY      1200   39      30/  5/  8 1031.2R
ACE BASIN NERRS  1200   44      20/  5     1028.0S
FORT PULASKI     1200   51 60   20/ 13/ 16 1028.5R
SAPELO ISLAND    1200   56      30/ 13     1026.0S

$$

ANZ086-088-AMZ330-350-352-354-374-454-470-171300-
...C-MAN AND BUOY OBSERVATIONS...

STATION/POSITION TIME  TEMP    WIND        PRES    WAVE   SWELL
                       AIR SEA DIR/SP/G            HT/PER HT/PER/DIR
                 (UTC) (F)     (DEG/KT/KT) (MB)    (FT/S) (FT/S/D)
FOLLY BEACH CMAN 1200   47      10/ 15/ 18 1029.7R
BUOY 41004       NOT AVBL
BUOY 41008       1200   61 63   50/ 23/ 29 1025.2R   7/ 8   3/ 70/11
5E ST. MARYS GA  1200      64                N/A     7/ 6   2/ 70/12
FRYING PAN BUOY  1200   55 62   40/ 23/ 27 1027.7R   8/ 7
BUOY 41025       NOT AVBL
CAPE LOOKOUT NC  1200   50      20/ 21/ 25 1030.2R
BUOY 41002       NOT AVBL
BUOY 41010       1200   70 76   50/ 19/ 25 1022.0R   9/ 9   5/ 20/11
BUOY 41012       NOT AVBL
ST AUGUSTINE FL  1200   65      10/  8/  8 1024.1R


$$



USA.gov is the U.S. government's official web portal to all federal, state and local government web resources and services.